Preview of NWS' New Version of Forecast
This preview is not operational and should not be used for support decisions.

Regional Weather Roundup (RWR)

Issued by National Weather Service (NWS)

                            
000
ASUS45 KABQ 222001
RWRNM 
NEW MEXICO REGIONAL WEATHER ROUNDUP
NATIONAL WEATHER SERVICE ALBUQUERQUE NM
200 PM MDT THU AUG 22 2019

NOTE: "FAIR" MEANS FEW OR NO CLOUDS BELOW 12,000 FEET AGL WITH NO
       SIGNIFICANT WEATHER OR OBSTRUCTIONS TO VISION.

      THIS PRODUCT IS RELEASED AS TWO VERSIONS.  ONE VERSION NEAR
      THE TOP OF THE HOUR CONTAINING PRELIMINARY DATA FROM ALBUQUERQUE
      AND OTHER STATIONS.  A FINAL VERSION WITH ADDITIONAL DATA IS 
      ISSUED ABOUT 10 MINUTES AFTER THE HOUR.
 
NMZ501-503-504-510>518-222100-
NORTHWEST PLATEAU/NORTHCENTRAL MOUNTAINS
  
CITY           SKY/WX    TMP DP  RH WIND       PRES   REMARKS
FARMINGTON     FAIR      90  31  12 W12G20    30.04F                  
LOS ALAMOS       N/A     79  45  29 SE12G17   30.20F                  
SANTA FE       FAIR      83  47  28 SW6       30.14F                  
TAOS           FAIR      81  44  27 W9        30.19F                  
ANGEL FIRE     FAIR      74  40  29 W15G23    30.28F                  

$$
NMZ402-403-502-505>509-222100-
WESTCENTRAL MOUNTAINS/SOUTHWEST MOUNTAINS
  
CITY           SKY/WX    TMP DP  RH WIND       PRES   REMARKS
GALLUP         FAIR      89  27  10 W18G28    30.14F                  
GRANTS         FAIR      87  29  12 NW9G21    30.16F                  
SILVER CITY    FAIR      86  52  30 SE5       30.12F                  

$$
NMZ407-409-411-412-222100-
SOUTHERN DESERTS
  
CITY           SKY/WX    TMP DP  RH WIND       PRES   REMARKS
DEMING         FAIR      88  53  30 W5        30.04F                  
LAS CRUCES     FAIR      89  50  26 SE3       30.06F                  
HOLLOMAN AFB   FAIR      91  51  25 SW5       30.03F                  
ALAMOGORDO     FAIR      88  48  25 CALM      30.03F                  
T OR C         FAIR      91  51  25 S9        30.05F                  

$$
NMZ519>523-222100-
CENTRAL VALLEYS/CENTRAL HIGHLANDS
  
CITY           SKY/WX    TMP DP  RH WIND       PRES   REMARKS
ALBUQUERQUE    FAIR      85  47  26 SW8G18    30.08F                  
DOUBLE EAGLE   MOSUNNY   86  48  26 SE10G22   30.12F                  
CLINES CORNERS FAIR      82  47  29 W16G22    30.21F                  
BELEN          FAIR      88  41  18 SW3       30.08F                  
SOCORRO        FAIR      90  48  24 SE13      30.05F                  

$$
NMZ524>526-539-540-222100-
SOUTHCENTRAL MOUNTAINS
  
CITY           SKY/WX    TMP DP  RH WIND       PRES   REMARKS
RUIDOSO        FAIR      81  48  32 N6        30.22F                  

$$
NMZ527>531-222100-
NORTHEAST HIGHLANDS/NORTHEAST PLAINS
  
CITY           SKY/WX    TMP DP  RH WIND       PRES   REMARKS
LAS VEGAS      FAIR      79  47  32 S14       30.15F                  
RATON          FAIR      84  45  25 E7        30.09F                  
CLAYTON        FAIR      85  53  33 S14G26    30.05F                  

$$
NMZ532>537-222100-
EASTCENTRAL PLAINS
  
CITY           SKY/WX    TMP DP  RH WIND       PRES   REMARKS
SANTA ROSA     FAIR      89  55  31 SE13G21   30.03F                  
TUCUMCARI      FAIR      90  59  35 S12       29.98F                  
CANNON AFB     FAIR      87  56  35 SE12      30.06F                  
CLOVIS AIRPORT FAIR      85  58  39 S10G18    30.06F                  

$$
NMZ028-029-538-222100-
SOUTHEAST PLAINS
  
CITY           SKY/WX    TMP DP  RH WIND       PRES   REMARKS
ROSWELL        FAIR      92  55  28 MISG      29.98F                  
ARTESIA        FAIR      90  57  33 S10G17    30.00F                  
CARLSBAD       FAIR      90  58  33 VRB3      29.96F                  
HOBBS          MOSUNNY   91  57  31 E8G16     30.00F                  


$$